Home   Weather   Ras al-Khaimah   Past weeks

Flag for United Arab Emirates Past Weather in Ras al-Khaimah, Ras al-Khaimah, United Arab Emirates — Yesterday and Last 2 Weeks

75 °F


Feels Like: 77 °F
Forecast: 75 / 97 °F
Wind: 3 mph from Southwest

Location: Ras Al Khaimah International Airport

Current Time: Oct 27, 2016 at 10:42:52 PM

Latest Report: Oct 27, 2016 at 10:00 PM

Visibility: 10 mi

Pressure: 30.04 "Hg

Humidity: 69%

Dew Point: 64 °F

Location of Ras al-KhaimahLocation

Past Weather in Ras al-Khaimah — Graph


Ras al-Khaimah Temperature Yesterday

Maximum temperature yesterday: 99 °F (at 11:00 AM)
Minimum temperature yesterday: 64 °F (at 6:00 AM)
Average temperature yesterday: 82 °F

High & Low Weather Summary for the Past Weeks

High99 °F (Oct 15, 1:00 PM)94% (Oct 15, 5:00 AM)30.09 "Hg (Oct 15, 5:00 AM)
Low64 °F (Oct 26, 6:00 AM)13% (Oct 18, 12:00 PM)29.77 "Hg (Oct 13, 1:00 AM)
Average83 °F60%29.87 "Hg
* Reported Oct 12 9:00 PM — Oct 27 9:00 PM, Ras al-Khaimah, Weather by CustomWeather, © 2016

Note: Actual official high and low records may vary slightly from our data, if they occured in-between our weather recording intervals... More about our weather records


Ras al-Khaimah Weather History for the Previous 24 Hours

Scroll right to see more
Time TempWeatherWind HumidityBarometerVisibility
9:00 PM
Thu, Oct 27
77 °FClear.No wind65%30.04 "Hg10 mi
8:00 PM79 °FClear.2 mph65%30.04 "Hg10 mi
7:00 PM82 °FClear.5 mph62%30.04 "Hg10 mi
6:00 PM88 °FClear.5 mph52%30.01 "Hg10 mi
5:00 PM91 °FSunny.8 mph41%30.01 "Hg10 mi
4:00 PM93 °FSunny.10 mph36%30.01 "Hg10 mi
3:00 PM95 °FSunny.13 mph30%30.01 "Hg10 mi
2:00 PM97 °FPassing clouds.9 mph25%30.01 "HgN/A
1:00 PM97 °FPassing clouds.7 mph20%30.04 "HgN/A
12:00 PM97 °FPassing clouds.3 mph18%30.04 "HgN/A
11:00 AM93 °FPassing clouds.7 mph20%30.07 "HgN/A
10:00 AM91 °FSunny.8 mph20%30.09 "Hg10 mi
9:00 AM86 °FSunny.7 mph25%30.07 "Hg10 mi
8:00 AM75 °FSunny.6 mph39%30.07 "Hg10 mi
7:00 AM64 °FSunny.2 mph52%30.04 "Hg10 mi
6:00 AM66 °FClear.No wind49%30.01 "Hg10 mi
5:00 AM68 °FClear.No wind46%29.98 "Hg10 mi
4:00 AM70 °FClear.5 mph46%29.98 "Hg10 mi
3:00 AM68 °FClear.5 mph46%29.95 "Hg10 mi
2:00 AM72 °FClear.6 mph38%29.98 "Hg10 mi
1:00 AM70 °FClear.2 mph43%29.98 "Hg10 mi
12:00 AM72 °FClear.No wind41%29.98 "Hg10 mi
11:00 PM
Wed, Oct 26
77 °FClear.3 mph39%29.98 "Hg10 mi
10:00 PM79 °FClear.10 mph34%29.98 "Hg10 mi
Weather by CustomWeather, © 2016

See weather overviewHow to use our weather pages